Zurück zum Katalog

STARLINK-2150

AktivKommunikationVLEO
NORAD 47739·PAYLOAD·🇺🇸 United States

Gestartet Mar 4, 2021 von Cape Canaveral Space Force Station

Loading…

Nächste Überflüge (nächste 24 Stunden)

TLE

AktuellSource: CelesTrak SupGP

Epoche: Sep 15, 2026, 01:40 UTC

1 47739C 21017T   26258.06993056 -.00027687  00000+0 -89023-3 0  2586
2 47739  53.1583  57.8768 0001127  94.4120 256.3836 15.31720413    10

Verfolge STARLINK-2150 in Echtzeit mit AllMySat

Download on the App Store